[[{"header":{"parameterUnit":"m.s-1","parameterCategory":1,"la1":30.2991,"la2":30.254,"lo1":-89.0895,"lo2":-89.0444,"dy":0.0017,"dx":0.0017,"nx":28,"ny":28,"refTime":"2023-07-21T21:00:00:Z","depth":0,"parameterNumber":2,"parameterNumberName":"U-component_of_WINDS"},"data":[0,0,0,0,0,0,0,0,0,0,0,0,0,0,0,0,0,0,0,0,0,0,0,0,0,0,0,0,0,0,0,0,0,0,0,0,0,0,0,0,0,0,0,0,0,0,0,0,0,0,0,0,0,0,0,0,0,0,4.9365,4.9366,0,4.9452,4.9453,4.9454,4.9404,4.9402,4.9399,4.9397,4.949,4.9494,4.9499,0,0,0,0,0,0,0,0,0,0,0,0,0,4.9158,4.9162,4.9365,4.9366,4.9367,4.9452,4.9454,4.9455,4.9405,4.9402,4.9399,4.9396,4.9488,4.9494,4.95,0,0,0,0,0,0,0,0,0,0,0,0,0,4.9247,4.9163,4.9365,4.9352,4.9352,4.9452,4.9454,4.9455,4.9405,4.9402,4.9398,4.9394,4.9486,4.9493,4.95,4.9618,0,0,4.9522,4.9525,0,0,0,0,0,0,0,0,4.9242,4.9255,4.9353,4.9353,4.9353,4.9414,4.9414,4.951,4.9406,4.9385,4.9397,4.9393,4.9468,4.9476,4.9501,4.9623,4.9627,4.9523,4.9527,4.953,4.9532,0,0,0,0,0,0,0,4.9236,4.9251,4.94,4.9355,4.9355,4.9344,4.9352,4.9432,4.9446,4.9387,4.9383,4.9394,4.9467,4.9494,4.9503,4.9628,4.9523,4.9529,4.9533,4.9536,4.9854,4.9857,0,0,0,0,0,0,4.923,4.9246,4.9397,4.9402,4.9287,4.935,4.936,4.9398,4.9445,4.9449,4.9397,4.9392,4.9484,4.9494,4.9506,4.9648,4.953,4.9537,4.9541,4.9849,4.9854,4.9859,0,0,0,0,0,0,4.9226,4.9244,4.9393,4.9323,4.9341,4.9358,4.9401,4.9402,4.9428,4.9453,4.9456,4.9422,4.9481,4.9496,4.9591,4.9651,4.954,4.9547,4.9845,4.9851,4.9857,4.9934,0,0,0,0,0,0,4.922,4.9243,4.9287,4.9324,4.9345,4.9476,4.9405,4.9406,4.9441,4.9434,4.9477,4.9481,4.9479,4.9581,4.9598,4.9659,4.9552,4.9839,4.9847,4.9855,4.9926,4.9942,4.9955,0,0,0,0,0,4.9213,4.9305,4.9289,4.9308,4.94,4.948,4.9492,4.9487,4.9446,4.9491,4.9507,4.9479,4.9641,4.9591,4.961,4.9674,4.9836,4.9845,4.9854,4.9919,4.9939,4.9955,0,0,0,0,0,0,4.9275,4.931,4.9293,4.94,4.9437,4.9471,4.9528,4.9508,4.9558,4.955,4.9544,4.9554,4.9654,4.9673,4.9616,4.9791,4.9732,4.9746,4.9775,4.9794,4.9808,4.9802,4.9558,0,0,0,0,0,4.9301,4.9362,4.9389,4.9481,4.9501,4.9511,4.9546,4.9539,4.9578,4.9594,4.9616,4.9656,4.9716,4.9756,4.9812,4.9928,4.9938,4.9982,4.9996,5.0008,5.0021,5.0085,5.0105,4.989,4.9889,4.9889,0,0,4.9356,4.9382,4.9421,4.9494,4.9522,4.9587,4.9525,4.9595,4.9643,4.9605,4.9696,4.9715,4.9759,4.9865,4.9913,4.9885,5.0082,5.002,5.003,5.0035,5.0097,5.0117,5.0135,4.9896,4.9895,4.9894,0,0,4.9488,4.9514,4.9594,4.9624,4.9667,4.9673,4.9693,4.973,4.9741,4.9832,4.9805,4.9863,4.9966,4.9999,5.0029,5.0175,5.0153,5.0194,5.0271,5.0334,5.0351,5.0366,5.042,5.0439,5.0206,5.0206,5.0206,0,4.9551,4.9645,4.9638,4.9711,4.9744,4.9712,4.9794,4.9823,4.9883,4.9908,4.9874,5.0004,5.0031,5.0146,5.0182,5.0207,5.023,5.0189,5.0349,5.0364,5.0378,5.0429,5.0449,5.0211,5.021,5.021,5.0209,0,4.9721,4.9787,4.9847,4.9905,4.9946,5.0023,5.0028,5.007,5.0061,5.0071,5.0166,5.0198,5.026,5.0287,5.0278,5.0401,5.0382,5.0349,5.029,5.0404,5.0452,5.0471,5.0218,5.0216,5.0215,5.0214,0,0,4.9895,4.9949,4.9971,4.9998,5.0044,5.0095,5.0171,5.0232,5.0269,5.0312,5.0377,5.0465,5.0435,5.0469,5.0464,5.0519,5.0635,5.048,5.0481,5.0509,5.0774,5.0799,5.0822,5.062,5.0624,5.0627,5.0771,0,5.0032,5.0164,5.016,5.0284,5.0345,5.0316,5.0383,5.0419,5.0431,5.0487,5.05,5.0564,5.0519,5.0539,5.0593,5.061,5.0689,5.0599,5.0682,5.0685,5.0672,5.0847,5.0874,5.1008,5.079,5.0793,5.0795,0,5.0208,5.0257,5.0386,5.0424,5.045,5.051,5.0566,5.0619,5.066,5.0665,5.0704,5.069,5.0769,5.0707,5.0817,5.0756,5.079,5.0804,5.0809,5.0817,5.0747,5.0861,5.1051,5.1071,5.0824,5.0822,5.082,0,5.0324,5.0422,5.0512,5.0536,5.0582,5.0625,5.0646,5.0683,5.0721,5.077,5.0794,5.0853,5.0885,5.0931,5.0935,5.0889,5.1046,5.0983,5.1054,5.1054,5.1088,5.1086,5.1287,5.1109,5.1108,5.1108,5.1108,0,5.0477,5.0558,5.0565,5.0621,5.0711,5.0706,5.0796,5.0813,5.0847,5.0907,5.0885,5.0942,5.0942,5.1001,5.1004,5.1095,5.111,5.1117,5.1117,5.112,5.1119,5.1142,5.1133,5.1113,5.1112,5.1111,5.111,0,5.0622,5.0629,5.0726,5.0762,5.0773,5.0838,5.0869,5.0923,5.0933,5.101,5.1027,5.1044,5.1112,5.1119,5.1199,5.1201,5.1311,5.1301,5.1297,5.1296,5.1366,5.1359,5.1589,5.162,5.1421,5.1422,5.1424,0,5.072,5.0781,5.0824,5.0862,5.0885,5.0947,5.0985,5.0983,5.1024,5.1076,5.1124,5.1189,5.1241,5.1351,5.1372,5.1432,5.1424,5.15,5.1433,5.1434,5.1427,5.1423,5.143,5.1514,5.1516,5.1518,5.1519,0,5.0893,5.0894,5.0949,5.1006,5.1051,5.1096,5.1138,5.1171,5.1174,5.1221,5.129,5.1331,5.1411,5.1477,5.1537,5.156,5.1542,5.154,5.156,5.1563,5.1559,5.1563,5.1334,5.1535,5.1533,5.1532,5.1531,5.1531,5.1018,5.1072,5.111,5.1173,5.1204,5.1244,5.1297,5.1314,5.137,5.1435,5.1431,5.1507,5.1548,5.1627,5.1655,5.1715,5.169,5.1718,5.1725,5.1733,5.174,5.1549,5.1726,5.1725,5.1725,5.1725,5.1724,0,5.1191,5.1215,5.1272,5.1331,5.1381,5.1357,5.1403,5.1446,5.1513,5.1552,5.1604,5.1684,5.1748,5.1773,5.1836,5.188,5.1873,5.1897,5.1894,5.19,5.1759,5.1736,5.1901,5.1901,5.1901,5.1901,5.1901,5.1901,5.1287,5.1377,5.1383,5.1489,5.1512,5.1586,5.1614,5.1651,5.1683,5.1772,5.1825,5.1841,5.1875,5.194,5.1999,5.2004,5.2029,5.2057,5.206,5.1927,5.191,5.1893,5.1871,5.2062,5.2063,5.2196,5.2197,5.2198]},{"header":{"parameterUnit":"m.s-1","parameterCategory":1,"la1":30.2991,"la2":30.254,"lo1":-89.0895,"lo2":-89.0444,"dy":0.0017,"dx":0.0017,"nx":28,"ny":28,"refTime":"2023-07-21T21:00:00:Z","depth":0,"parameterNumber":3,"parameterNumberName":"V-component_of_WINDS"},"data":[0,0,0,0,0,0,0,0,0,0,0,0,0,0,0,0,0,0,0,0,0,0,0,0,0,0,0,0,0,0,0,0,0,0,0,0,0,0,0,0,0,0,0,0,0,0,0,0,0,0,0,0,0,0,0,0,0,0,0.9771,0.9771,0,0.9792,0.9792,0.9792,0.9793,0.9792,0.9792,0.9792,0.9813,0.9814,0.9814,0,0,0,0,0,0,0,0,0,0,0,0,0,0.9731,0.9731,0.9771,0.9771,0.9771,0.9792,0.9792,0.9792,0.9793,0.9792,0.9792,0.9792,0.9813,0.9814,0.9814,0,0,0,0,0,0,0,0,0,0,0,0,0,0.9749,0.9732,0.9771,0.9774,0.9775,0.9792,0.9792,0.9792,0.9793,0.9792,0.9792,0.9792,0.9812,0.9813,0.9815,0.983,0,0,0.9818,0.9819,0,0,0,0,0,0,0,0,0.9748,0.9751,0.9773,0.9774,0.9775,0.9789,0.9785,0.9805,0.9793,0.9786,0.9792,0.9791,0.9805,0.9807,0.9812,0.9831,0.9831,0.9818,0.9819,0.982,0.982,0,0,0,0,0,0,0,0.9747,0.975,0.9779,0.9774,0.9774,0.9774,0.9776,0.9789,0.9797,0.9786,0.9787,0.9789,0.9806,0.9811,0.9812,0.9832,0.9818,0.9819,0.982,0.9821,0.9863,0.9863,0,0,0,0,0,0,0.9745,0.9749,0.9778,0.978,0.976,0.9775,0.9778,0.9785,0.9797,0.9799,0.9789,0.9789,0.9809,0.9811,0.9813,0.9831,0.982,0.9821,0.9821,0.9862,0.9863,0.9863,0,0,0,0,0,0,0.9744,0.9748,0.9778,0.9764,0.9768,0.9776,0.9784,0.9785,0.9791,0.9799,0.9801,0.9793,0.9809,0.9811,0.9825,0.9831,0.9821,0.9822,0.9862,0.9862,0.9863,0.9866,0,0,0,0,0,0,0.9743,0.9748,0.9754,0.9765,0.9769,0.979,0.9785,0.9786,0.9793,0.9792,0.9803,0.9805,0.9808,0.9823,0.9826,0.9833,0.9823,0.9861,0.9862,0.9863,0.9866,0.9867,0.9868,0,0,0,0,0,0.9742,0.9754,0.9754,0.9758,0.9777,0.979,0.9793,0.9797,0.9793,0.9799,0.9805,0.9804,0.983,0.9825,0.9828,0.9835,0.9861,0.9862,0.9863,0.9865,0.9867,0.9868,0,0,0,0,0,0,0.9744,0.9756,0.9756,0.9772,0.978,0.979,0.9798,0.9798,0.9808,0.9807,0.9812,0.9814,0.9828,0.9833,0.9827,0.9849,0.9845,0.9847,0.9846,0.9847,0.9848,0.9847,0.9824,0,0,0,0,0,0.9746,0.9756,0.9766,0.9779,0.9783,0.979,0.9796,0.9798,0.9807,0.981,0.9817,0.9825,0.9835,0.9841,0.9851,0.9866,0.9868,0.9872,0.9874,0.9875,0.9876,0.9883,0.9885,0.9866,0.9866,0.9866,0,0,0.9751,0.9759,0.9765,0.978,0.9786,0.9796,0.9793,0.9804,0.9811,0.9812,0.9825,0.983,0.984,0.9854,0.9861,0.9859,0.9881,0.9876,0.9876,0.9877,0.9884,0.9886,0.9888,0.9867,0.9867,0.9866,0,0,0.9765,0.9772,0.9783,0.979,0.98,0.9804,0.9807,0.9817,0.982,0.9834,0.9834,0.9843,0.986,0.9866,0.9872,0.9887,0.9887,0.989,0.9896,0.9903,0.9904,0.9906,0.991,0.9912,0.9891,0.9891,0.9891,0,0.977,0.9785,0.9789,0.98,0.9806,0.9807,0.9818,0.9824,0.9837,0.9841,0.9838,0.9859,0.9866,0.9881,0.9884,0.9889,0.9892,0.9888,0.9904,0.9905,0.9907,0.9911,0.9913,0.9891,0.9891,0.9891,0.9891,0,0.979,0.9801,0.9809,0.9821,0.9828,0.9838,0.9844,0.985,0.9851,0.9856,0.9869,0.9876,0.9887,0.9891,0.9893,0.9906,0.9905,0.9903,0.9899,0.9909,0.9913,0.9915,0.9892,0.9891,0.9891,0.9891,0,0,0.9807,0.982,0.9823,0.9827,0.9838,0.9846,0.9857,0.9867,0.9872,0.988,0.9889,0.9903,0.9901,0.9907,0.991,0.9916,0.9926,0.9913,0.9914,0.9915,0.9941,0.9942,0.9944,0.9926,0.9927,0.9927,0.994,0,0.9821,0.984,0.9844,0.986,0.9869,0.987,0.9879,0.9886,0.989,0.9898,0.9902,0.9912,0.9909,0.9913,0.9919,0.9924,0.9932,0.9923,0.9934,0.9934,0.9931,0.9946,0.9947,0.9959,0.9942,0.9942,0.9942,0,0.9841,0.985,0.9867,0.9875,0.9879,0.9887,0.9896,0.9904,0.9912,0.9915,0.9921,0.9922,0.9932,0.9927,0.9941,0.9935,0.994,0.9943,0.9943,0.9944,0.9939,0.9947,0.9963,0.9965,0.9945,0.9945,0.9945,0,0.985,0.9866,0.9878,0.9883,0.9893,0.9898,0.9903,0.991,0.9916,0.9924,0.9927,0.9936,0.9941,0.9948,0.9951,0.9948,0.9965,0.996,0.9966,0.9966,0.997,0.997,0.9987,0.9973,0.9973,0.9973,0.9973,0,0.9866,0.9877,0.9882,0.989,0.9901,0.9905,0.9916,0.992,0.9926,0.9934,0.9935,0.9942,0.9947,0.9954,0.9957,0.9967,0.997,0.9972,0.9972,0.9971,0.9971,0.9974,0.9973,0.9974,0.9974,0.9974,0.9974,0,0.9879,0.9883,0.9896,0.9905,0.9907,0.9915,0.9922,0.9929,0.9932,0.9942,0.9944,0.995,0.9959,0.9963,0.9974,0.9976,0.9988,0.9988,0.9985,0.9985,0.9991,0.999,1.001,1.0013,0.9999,0.9999,0.9999,0,0.9888,0.9896,0.9905,0.9911,0.9915,0.9924,0.9929,0.9933,0.9938,0.9947,0.9953,0.9962,0.9969,0.9983,0.9988,0.9996,0.9997,1.0003,0.9998,0.9996,0.9996,0.9995,0.9996,1.0004,1.0004,1.0004,1.0004,0,0.9905,0.9906,0.9915,0.9923,0.993,0.9937,0.9944,0.9948,0.9952,0.9958,0.9967,0.9973,0.9984,0.9993,1.0001,1.0005,1.0005,1.0006,1.0008,1.0007,1.0005,1.0005,0.9987,1.0005,1.0005,1.0005,1.0005,1.0005,0.9916,0.9923,0.993,0.9938,0.9944,0.995,0.9956,0.9961,0.9968,0.9977,0.9979,0.9988,0.9995,1.0006,1.0011,1.0018,1.0016,1.0019,1.002,1.002,1.002,1.0004,1.0019,1.0019,1.0019,1.0019,1.0019,0,0.9932,0.9936,0.9944,0.9953,0.996,0.9959,0.9967,0.9972,0.9981,0.9987,0.9994,1.0004,1.0012,1.0017,1.0025,1.003,1.003,1.0032,1.0031,1.0032,1.0021,1.0019,1.0031,1.0031,1.0031,1.0031,1.0031,1.0031,0.9941,0.9952,0.9954,0.9967,0.9972,0.9981,0.9985,0.999,0.9995,1.0006,1.0013,1.0016,1.0022,1.003,1.0037,1.0039,1.0041,1.0043,1.0044,1.0034,1.0033,1.0032,1.0029,1.0044,1.0044,1.0054,1.0054,1.0054]}]]